User: anonymous   Login
Location: Unspecified
(0.0000°N, 0.0000°E)
Time: 09:23:55
(UTC+02:00)
Language:

Cosmos 1898 Rocket - Orbit

View from above orbital plane
View from above orbital plane
View from above satellite
View from above satellite

Ground track
Ground track

The orbit data is extracted from the following two-line orbital elements,

1 18586U 87098B   15087.82091664  .00000298  00000-0  11006-3 0  9997
2 18586 074.0091 349.2020 0022067 238.7100 181.5203 14.36586824430845
Epoch (UTC): 28 March 2015 19:42:07
Eccentricity: 0.0022067
inclination: 74.0091°
perigee height: 754 km
apogee height: 785 km
right ascension of ascending node: 349.2020°
argument of perigee: 238.7100°
revolutions per day: 14.36586824
mean anomaly at epoch: 181.5203°
orbit number at epoch: 43084

The dashed part of the orbit path shows where the satellite is in the earth's shadow,  

DLR